SCP
0 0 0 0 0 0 0 0 0 0 0 0 0 0 0 0 0 0 0 0 0 0 0 0 0 0 0 0 0 0 0 0 0 0 0 0 0 0 0 0 0 0 0 0
0 0 0 0 0 0 0 0 0 0 0 0 0 0 0 0 0 0 0 0 0 0 0 0 0 0 0 0 0 0 0 0 1 0 0 0 0 0 0 0 0 0 0 0
0 0 0 0 0 0 0 0 0 0 0 0 0 0 0 0 0 0 0 0 0 0 0 0 0 0 0 0 0 0 1 1 1 1 1 1 1 0 0 0 0 0 0 0
0 0 0 0 0 0 0 0 0 0 0 0 0 0 0 0 0 0 0 0 0 0 0 0 0 0 0 0 0 1 1 1 1 1 1 1 1 1 1 0 0 0 0 0
0 0 0 0 0 0 0 0 0 0 0 0 0 0 0 0 0 0 0 0 0 0 0 0 0 0 0 0 0 0 1 1 1 1 1 1 1 1 1 0 0 0 0 0
0 0 0 0 0 0 0 0 0 0 0 0 0 0 0 0 0 0 0 0 0 0 0 0 0 0 0 0 0 0 0 1 1 1 1 1 1 1 1 0 0 0 0 0
0 0 0 0 0 0 0 0 0 0 0 0 0 0 0 0 0 0 0 0 0 0 0 0 0 0 0 0 0 0 0 1 1 1 1 1 1 1 0 0 0 0 0 0
0 0 0 0 0 0 0 0 0 0 0 0 0 0 0 0 1 1 1 0 0 0 0 0 0 0 0 0 0 0 0 1 1 1 1 1 1 0 0 0 0 0 0 0
0 0 0 0 0 0 0 0 0 0 0 0 0 0 1 1 1 1 1 0 0 0 0 0 0 0 0 0 0 0 0 0 0 0 0 0 0 0 0 0 0 0 0 0
0 0 0 0 0 0 0 0 0 0 0 0 0 0 1 1 1 1 1 1 1 1 1 1 1 1 1 0 0 0 0 0 0 0 0 0 0 0 0 0 0 0 0 0
0 0 0 0 0 0 0 0 0 0 0 0 0 0 0 0 1 1 1 1 1 1 1 1 1 1 1 1 1 1 1 0 0 0 0 0 0 0 0 0 0 0 0 1
0 0 0 0 0 0 0 0 0 0 0 0 0 0 0 0 0 0 0 0 0 0 0 1 1 1 1 1 1 1 1 1 0 0 0 0 0 0 0 0 0 0 0 0
0 0 0 0 0 0 0 0 0 0 -0 -0 0 0 0 0 0 0 0 0 0 0 0 0 0 0 0 0 1 1 1 1 0 0 0 0 0 0 0 0 0 0 0 0
0 0 0 0 0 0 0 0 0 0 -0 -0 -0 -0 0 0 0 0 0 0 0 0 0 0 0 0 0 0 0 0 0 0 0 0 0 0 0 0 0 0 0 0 0 0
0 0 0 0 0 0 0 0 0 0 0 0 0 0 0 0 0 0 0 0 0 0 0 0 0 0 0 0 0 0 0 0 0 0 0 0 0 0 0 0 0 0 0 0
0 0 0 0 0 0 0 0 0 0 0 0 0 0 0 0 0 0 0 0 0 0 0 0 0 0 0 0 0 0 0 0 0 0 0 0 0 0 0 0 0 0 0 0
0 0 0 0 0 0 0 0 0 0 0 0 0 0 0 0 0 0 0 0 0 0 0 0 0 0 0 0 0 0 0 0 0 0 0 0 0 0 0 0 0 0 0 0
0 0 0 0 0 0 0 0 0 0 0 0 0 0 0 0 0 0 0 0 0 0 0 0 0 0 0 0 0 0 0 0 0 0 0 0 0 0 0 0 0 0 0 0
0 0 0 0 0 0 0 0 0 0 0 0 0 0 0 0 0 0 0 0 0 0 0 0 0 0 0 0 0 0 0 0 0 0 0 0 0 0 0 0 0 0 0 0
0 0 0 0 0 0 0 0 0 0 0 0 0 0 0 0 0 0 0 0 0 0 0 0 0 0 0 0 0 0 0 0 0 0 0 0 0 0 0 0 0 0 0 0
0 0 0 0 0 0 0 0 0 0 0 0 0 0 0 0 0 0 0 0 0 0 0 0 0 0 0 0 0 0 0 0 0 0 0 0 0 0 0 0 0 0 0 0
0 0 0 0 0 0 0 0 0 0 0 0 0 0 0 0 0 0 0 0 0 0 0 0 0 0 0 0 0 0 0 0 0 0 0 0 0 0 0 0 0 0 0 0
0 0 0 0 0 0 0 0 0 0 0 0 0 0 0 0 0 0 0 0 0 0 0 0 0 0 0 0 0 0 0 0 0 0 0 0 0 0 0 0 0 0 0 0
0 0 0 0 0 0 0 0 0 0 0 0 0 0 -0 0 0 0 0 0 0 0 0 -0 -0 -0 0 0 0 0 0 0 0 0 0 0 0 0 0 0 0 0 0 0
0 0 0 0 0 0 0 0 0 0 0 0 0 0 0 0 0 0 0 0 0 0 -0 -0 -0 -0 -0 -0 0 0 0 0 0 0 0 0 0 0 0 0 0 0 0 0
0 0 0 0 0 0 0 0 0 0 0 0 0 0 0 0 0 0 0 0 0 0 0 0 0 0 0 -0 0 0 0 0 0 0 0 0 0 0 0 0 0 0 0 0
0 0 0 0 0 0 0 0 0 0 0 0 0 0 0 0 0 0 0 0 0 0 0 0 0 0 0 0 0 0 0 0 0 0 0 0 0 0 0 0 0 0 0 0
Wind_Speed
3 3 2 3 4 5 5 7 8 8 7 9 6 5 4 2 2 2 2 3 4 4 4 4 4 4 4 5 5 5 5 6 6 5 4 4 4 4 3 3 4 3 3 3
1 1 2 3 3 4 4 4 5 3 7 6 3 1 1 2 4 4 5 5 4 4 4 5 5 5 5 5 5 5 6 6 5 4 4 4 4 4 3 3 3 3 3 3
2 4 2 3 4 3 3 3 5 6 7 2 1 3 4 4 5 5 6 5 5 5 6 6 5 5 6 6 5 5 5 5 4 5 5 5 5 4 4 4 3 3 3 3
1 2 4 7 3 2 2 2 3 3 3 3 4 3 2 3 4 4 4 4 5 4 4 4 4 4 4 4 4 5 5 5 5 5 5 4 4 4 4 3 3 3 3 3
3 2 5 6 2 1 1 3 2 2 2 2 0 2 3 2 2 3 4 4 3 3 4 3 4 4 4 3 4 4 5 5 5 5 4 4 5 4 4 3 3 3 3 3
4 3 6 6 3 3 1 3 2 1 1 1 2 1 4 2 1 1 1 1 2 2 2 3 3 4 4 4 4 5 5 5 4 5 5 5 5 4 3 3 3 3 3 3
4 4 7 6 6 2 2 6 3 1 3 2 3 4 3 2 1 1 1 1 0 1 1 2 3 4 4 4 5 5 3 3 3 4 5 5 4 4 3 3 2 3 3 3
4 3 7 4 2 2 5 4 2 2 2 2 2 2 1 0 1 2 2 2 2 2 0 0 2 4 4 4 3 2 2 2 3 3 3 3 3 3 3 3 3 3 3 3
7 7 5 3 2 3 2 2 2 2 3 2 1 2 1 1 1 2 2 2 1 2 1 1 1 3 4 3 2 3 3 2 2 2 2 2 3 3 3 3 3 3 3 4
2 5 4 4 3 3 2 2 3 2 2 1 2 2 1 1 1 2 2 1 1 2 2 1 0 1 2 2 3 3 3 2 2 2 2 2 2 2 3 3 3 3 3 4
3 5 5 4 3 3 3 3 3 3 2 2 1 1 1 1 0 0 1 1 2 1 1 0 0 1 2 2 3 3 3 2 2 2 2 2 2 2 3 4 4 5 4 4
5 5 4 6 5 3 2 3 2 3 4 3 1 2 1 1 1 0 1 1 2 1 1 0 1 1 1 2 3 3 2 2 1 1 1 2 2 1 2 3 4 6 6 5
6 4 4 5 5 3 2 3 3 2 1 2 2 1 1 1 1 0 1 1 1 0 1 1 1 1 1 2 2 3 2 2 2 2 2 2 2 2 2 2 2 3 4 5
4 2 3 3 3 4 3 3 2 2 1 1 0 0 0 0 1 0 1 1 0 0 1 0 1 1 1 2 2 2 2 2 2 2 2 2 3 3 3 2 2 2 2 4
4 3 4 4 3 3 3 2 1 2 2 2 1 0 1 1 2 2 2 1 0 0 1 0 1 2 1 1 2 2 2 2 2 2 2 2 2 2 2 2 2 2 2 2
3 3 2 2 3 3 2 1 2 3 3 2 2 2 2 1 1 2 1 1 1 2 2 1 2 3 1 2 2 2 2 2 2 1 1 1 1 2 2 2 2 2 3 3
2 3 3 3 3 3 3 3 3 4 3 3 3 2 1 1 1 2 2 2 2 3 2 2 3 2 2 2 2 2 1 1 2 1 2 2 2 2 2 3 3 3 3 3
5 5 5 5 4 4 4 3 3 3 4 4 3 1 1 2 3 3 3 2 1 2 3 2 3 2 2 2 2 2 2 1 1 2 2 2 2 2 2 2 3 3 2 2
3 3 4 4 4 3 3 3 4 3 3 2 2 3 3 3 3 2 1 1 1 3 4 3 3 3 3 2 2 1 1 1 1 1 1 1 2 2 2 2 2 2 2 2
3 3 3 3 2 2 3 3 3 3 3 2 2 2 2 3 2 2 1 2 3 3 3 3 3 2 2 2 1 1 1 1 1 1 1 1 1 2 2 2 2 2 2 2
3 3 3 2 2 2 2 2 2 3 3 2 2 3 3 3 2 1 1 3 4 3 2 2 1 2 1 1 1 1 1 1 1 1 1 1 1 1 1 1 1 1 1 1
2 2 2 2 1 2 3 2 2 2 2 2 2 2 2 2 2 2 3 3 3 2 1 1 1 1 1 0 0 1 1 1 1 1 1 1 1 1 0 0 1 1 1 1
2 2 2 2 1 2 2 2 2 2 2 2 2 2 3 3 2 1 3 3 2 1 1 1 1 0 0 1 1 1 0 1 1 1 1 1 1 1 1 0 1 1 1 1
2 2 2 2 1 2 3 3 3 2 2 2 2 2 2 1 1 2 2 3 2 1 1 1 1 1 1 1 1 1 1 0 1 1 1 0 0 0 0 0 0 1 1 1
1 2 2 2 2 1 3 3 3 3 3 2 2 2 1 1 1 2 2 1 1 1 1 1 1 1 1 1 1 1 0 0 0 0 1 0 1 0 0 0 0 0 1 1
1 1 1 1 1 2 2 1 2 2 2 2 2 2 1 1 1 1 1 1 1 1 1 1 1 1 1 1 1 1 0 0 0 0 0 0 0 0 0 0 1 0 1 1
2 1 1 2 2 2 1 1 1 2 2 2 2 2 2 1 1 1 1 1 1 1 1 1 1 1 1 1 1 1 1 1 0 0 0 0 0 0 0 0 1 1 1 1
Wind_Direction
230 241 219 222 216 187 188 185 189 223 228 255 259 247 240 212 189 179 192 193 193 199 201 196 196 197 195 194 188 184 182 194 207 207 201 198 200 204 205 206 213 209 206 213
328 317 250 247 251 214 210 197 211 230 258 250 257 249 229 208 189 198 213 214 211 205 204 203 203 200 196 197 192 180 187 202 202 193 195 200 202 198 196 203 207 201 210 215
270 316 12 273 248 222 215 203 186 216 239 247 242 229 227 220 206 209 220 222 217 212 213 213 211 203 200 201 184 177 192 201 197 197 202 206 203 195 199 203 199 202 212 218
120 59 227 247 264 209 215 253 230 231 234 226 233 242 259 232 213 220 219 221 225 220 223 219 208 206 194 173 173 182 194 201 200 199 205 199 190 200 206 198 197 206 215 219
121 176 272 290 276 144 193 272 254 215 273 300 14 35 339 300 222 228 227 229 235 222 213 206 198 193 166 166 174 184 200 207 203 195 197 196 199 206 206 198 206 212 218 216
130 164 228 249 295 311 124 278 293 231 247 240 72 86 271 306 318 300 286 257 239 222 180 177 184 164 156 169 178 202 212 211 200 186 189 197 200 202 202 204 218 222 233 228
160 205 255 271 301 17 163 251 287 234 238 227 211 216 242 301 334 1 359 20 100 135 167 187 165 155 162 178 205 217 207 194 190 188 194 194 187 187 189 199 202 217 236 243
151 192 252 306 17 149 232 270 280 258 251 257 264 281 278 337 29 41 33 33 61 89 65 220 154 158 171 206 221 189 169 170 180 184 191 184 180 189 185 187 201 216 235 255
189 211 247 281 259 266 238 265 285 277 288 278 288 285 295 325 5 18 25 23 58 91 86 55 130 169 183 215 181 155 157 172 178 176 188 180 183 191 189 193 210 228 236 250
252 262 275 291 309 324 315 293 295 290 302 307 269 259 283 283 340 4 5 10 38 76 89 76 146 175 183 172 146 147 164 179 180 180 195 200 195 193 200 207 215 228 240 250
270 282 310 303 303 309 332 350 0 357 357 343 292 264 228 231 277 307 15 28 51 81 100 115 165 155 138 128 134 146 160 173 186 193 196 208 216 215 216 218 214 218 230 231
232 242 234 269 287 305 321 329 341 355 357 339 270 236 214 208 243 169 77 64 69 68 81 124 132 130 127 134 140 149 160 175 194 204 206 209 219 264 277 249 247 232 231 227
231 247 239 263 292 310 307 312 320 318 292 298 312 246 210 255 260 143 90 91 117 208 226 215 163 173 198 150 148 163 181 196 208 210 207 212 212 221 261 303 285 253 245 240
244 256 288 287 290 302 304 308 320 328 317 294 300 37 104 311 305 251 229 231 207 260 292 266 200 224 219 149 158 188 193 200 206 217 218 218 219 222 227 237 269 286 277 251
278 255 244 271 296 304 303 317 332 313 312 325 324 278 223 239 265 269 283 307 19 351 319 319 248 257 240 165 186 210 216 222 219 227 227 221 219 221 233 237 249 268 286 287
285 291 275 277 289 299 310 317 294 283 276 274 279 279 258 218 246 276 288 289 227 248 253 231 245 259 234 191 199 216 225 235 225 226 230 224 218 220 237 249 259 264 266 270
252 280 287 290 286 285 282 269 251 255 262 263 262 266 268 254 275 284 285 276 268 266 259 238 251 262 234 203 207 228 228 239 241 231 226 227 227 230 240 247 252 259 266 271
229 238 245 247 254 268 281 285 276 267 256 258 264 262 252 242 250 263 271 281 305 307 293 278 269 265 250 221 207 212 215 225 229 233 234 235 243 246 244 249 253 255 272 288
242 246 259 266 265 264 271 275 275 275 268 246 230 239 241 246 252 263 281 295 289 288 292 291 273 263 263 257 223 198 202 217 232 242 238 246 256 259 253 250 255 262 268 274
281 273 271 274 275 272 274 282 290 295 282 248 233 252 265 260 250 241 239 259 257 255 272 285 281 273 271 264 222 194 200 213 224 232 239 241 248 262 261 258 259 262 266 264
319 315 305 292 291 295 293 295 291 285 286 262 234 242 255 267 260 235 240 272 280 278 284 283 284 283 279 261 179 174 191 213 216 214 226 230 237 255 272 282 275 266 272 293
319 320 318 315 314 306 304 299 289 285 294 291 276 275 279 279 273 268 257 253 277 291 297 293 289 288 286 2 121 159 195 211 207 193 196 198 186 197 214 259 273 285 318 341
327 331 327 318 300 292 313 319 312 306 297 287 279 272 266 261 248 249 283 289 291 269 268 284 282 208 189 96 117 123 161 171 176 170 149 143 159 165 167 230 282 308 345 356
349 340 326 324 1 6 335 316 316 313 304 297 289 277 266 275 298 276 272 292 294 279 299 301 235 192 153 114 105 106 129 155 151 135 118 128 168 171 175 179 325 344 357 3
328 336 353 16 11 320 296 307 326 332 337 335 329 322 292 232 240 272 284 298 327 356 1 17 65 77 79 82 95 103 110 110 145 139 143 218 256 249 67 25 337 332 326 316
326 325 319 308 291 298 315 332 332 324 327 328 327 329 336 332 290 283 309 358 35 46 42 35 54 78 89 89 87 84 55 12 44 44 279 270 316 318 321 346 344 325 310 298
343 345 347 347 342 336 331 335 328 324 321 311 321 336 344 344 346 350 7 17 28 32 44 51 56 64 77 76 73 61 38 19 14 16 30 29 350 324 324 355 350 335 321 304